TimeCDT,TemperatureF,Dew PointF,Humidity,Sea Level PressureIn,VisibilityMPH,Wind Direction,Wind SpeedMPH,Gust SpeedMPH,PrecipitationIn,Events,Conditions,WindDirDegrees,DateUTC
12:14 AM,28.4,26.6,93,30.28,1.0,NE,11.5,-,0.03,Snow,Light Snow,50,2012-10-28 05:14:00
12:42 AM,28.4,26.6,93,30.28,0.8,NE,11.5,-,0.04,Snow,Light Snow,50,2012-10-28 05:42:00
12:53 AM,28.9,26.1,89,30.31,0.8,NE,9.2,-,0.05,Snow,Light Snow,40,2012-10-28 05:53:00
1:00 AM,28.4,26.6,93,30.28,2.0,NE,9.2,-,0.00,Snow,Light Snow,40,2012-10-28 06:00:00
1:03 AM,28.4,26.6,93,30.28,3.0,NE,10.4,-,0.00,Snow,Light Snow,40,2012-10-28 06:03:00
1:53 AM,28.0,25.0,88,30.32,10.0,NE,9.2,-,0.00,,Overcast,40,2012-10-28 06:53:00
2:53 AM,28.0,24.1,85,30.32,10.0,NNE,11.5,-,N/A,,Overcast,30,2012-10-28 07:53:00
3:08 AM,26.6,24.8,93,30.26,10.0,NE,11.5,-,N/A,,Overcast,40,2012-10-28 08:08:00
3:15 AM,26.6,24.8,93,30.27,10.0,NNE,11.5,-,N/A,,Mostly Cloudy,30,2012-10-28 08:15:00
3:24 AM,26.6,24.8,93,30.27,10.0,NNE,11.5,-,N/A,,Mostly Cloudy,30,2012-10-28 08:24:00
3:35 AM,26.6,23.0,86,30.27,10.0,NNE,10.4,-,N/A,,Mostly Cloudy,20,2012-10-28 08:35:00
3:53 AM,27.0,23.0,85,30.31,10.0,NNE,10.4,-,N/A,,Overcast,20,2012-10-28 08:53:00
4:28 AM,26.6,23.0,86,30.27,10.0,NNE,11.5,-,N/A,,Overcast,30,2012-10-28 09:28:00
4:36 AM,26.6,23.0,86,30.26,10.0,NNE,12.7,-,N/A,,Overcast,30,2012-10-28 09:36:00
4:53 AM,27.0,23.0,85,30.30,10.0,NE,11.5,-,N/A,,Overcast,50,2012-10-28 09:53:00
5:13 AM,26.6,23.0,86,30.27,10.0,NNE,9.2,-,N/A,,Overcast,30,2012-10-28 10:13:00
5:53 AM,28.0,23.0,81,30.32,10.0,NNE,9.2,-,N/A,,Overcast,30,2012-10-28 10:53:00
6:46 AM,26.6,21.2,80,30.28,10.0,NNE,10.4,-,N/A,,Mostly Cloudy,30,2012-10-28 11:46:00
6:53 AM,26.1,21.9,84,30.32,10.0,NNE,10.4,-,N/A,,Scattered Clouds,30,2012-10-28 11:53:00
7:53 AM,24.1,21.0,88,30.33,10.0,NE,8.1,-,N/A,,Clear,40,2012-10-28 12:53:00
8:53 AM,24.1,19.9,84,30.34,10.0,NNE,6.9,-,N/A,,Clear,30,2012-10-28 13:53:00
9:53 AM,25.0,19.9,81,30.34,10.0,NNE,6.9,-,N/A,,Clear,30,2012-10-28 14:53:00
10:53 AM,25.0,19.9,81,30.32,10.0,ENE,9.2,-,N/A,,Clear,60,2012-10-28 15:53:00
11:24 AM,26.6,21.2,80,30.27,10.0,East,8.1,-,N/A,,Scattered Clouds,80,2012-10-28 16:24:00
11:32 AM,26.6,21.2,80,30.27,10.0,East,6.9,-,N/A,,Mostly Cloudy,80,2012-10-28 16:32:00
11:53 AM,28.4,23.0,80,30.27,10.0,East,5.8,-,N/A,,Mostly Cloudy,80,2012-10-28 16:53:00
12:07 PM,30.2,24.8,80,30.27,10.0,East,6.9,-,N/A,,Scattered Clouds,90,2012-10-28 17:07:00
12:53 PM,32.0,27.0,82,30.31,10.0,ENE,5.8,-,N/A,,Clear,70,2012-10-28 17:53:00
1:53 PM,35.1,28.9,78,30.30,10.0,NE,5.8,-,N/A,,Partly Cloudy,50,2012-10-28 18:53:00
2:53 PM,35.1,28.9,78,30.28,10.0,NE,6.9,-,N/A,,Overcast,50,2012-10-28 19:53:00
3:53 PM,35.1,28.9,78,30.27,10.0,ENE,9.2,-,N/A,,Overcast,60,2012-10-28 20:53:00
4:53 PM,35.1,28.9,78,30.26,10.0,ENE,9.2,-,N/A,,Overcast,60,2012-10-28 21:53:00
5:53 PM,35.1,30.0,82,30.26,10.0,ENE,6.9,-,N/A,,Overcast,70,2012-10-28 22:53:00
6:53 PM,35.1,30.0,82,30.25,10.0,ENE,8.1,-,N/A,,Overcast,70,2012-10-28 23:53:00
7:05 PM,35.6,30.2,81,30.21,10.0,ENE,8.1,-,N/A,,Overcast,70,2012-10-29 00:05:00
7:53 PM,35.1,30.9,85,30.25,10.0,ENE,9.2,-,N/A,,Overcast,70,2012-10-29 00:53:00
8:53 PM,35.1,30.9,85,30.24,9.0,East,9.2,-,N/A,,Overcast,80,2012-10-29 01:53:00
9:53 PM,35.1,32.0,89,30.23,7.0,ENE,5.8,-,N/A,,Overcast,70,2012-10-29 02:53:00
10:53 PM,36.0,32.0,86,30.23,8.0,East,6.9,-,N/A,,Overcast,80,2012-10-29 03:53:00
11:53 PM,35.1,32.0,89,30.22,8.0,ENE,6.9,-,N/A,,Overcast,70,2012-10-29 04:53:00